Погода в Серебряном Боре

Россия / Республика Саха (Якутия)     56°40′31″N   124°50′15″E
темп.,
°C
ветер,
м/с
пор.,
м/с
влажн.,
%
обл.,
%
осадки,
мм/ч
давл.,
гПа
погр.,
м
3 марта, ср
ср300:00−29юв2397100 0.0 102276
03:00−29ююв2298100 0.1 102051
06:00−30юв1297100 0.0 102024
09:00−28юв1298100 0.1 1020145
12:00−24ююв2492100 0.1 1017527
15:00−22ююв2286100 0.1 1015639
18:00−27ю1195100 0.0 101719
21:00−30зсз11100100 0.1 101919
4 марта, чт
чт400:00−30сз1199100 0.1 102119
03:00−31сз1299100 0.1 102219
06:00−32ссз2298100 0.0 102423
09:00−30ссз3996100 0.1 1026437
12:00−27ссз5988100 0.0 1027958
15:00−27ссз61086100 0.1 10281163
18:00−29ссз51190100 0.1 10301040
21:00−30ссз61391100 0.1 10331017
5 марта, пт
пт500:00−30ссз61491100 0.1 10351009
03:00−30сз61490100 0.1 10361041
06:00−30сз61491100 0.1 10381023
09:00−30сз71487100 0.1 1039893
12:00−27ссз7138594 0.0 1037913
15:00−24ссз598597 0.0 1036962
18:00−27ссз2291100 0.0 103620
21:00−33зюз119498 0.0 103919
6 марта, сб
сб600:00−35ююз11871 0.0 103819
03:00−36ю11820 0.0 103819
06:00−36ю11790 0.0 103719
09:00−31ююв11810 0.0 103531
12:00−22ююв12750 0.0 1030293
15:00−18юв22750 0.0 1027448
18:00−21юв11900 0.0 102620
21:00−24юв118725 0.0 102820
7 марта, вс
вс700:00−23вюв1190100 0.0 102620
03:00−23вюв1190100 0.0 102520
06:00−23ююв1190100 0.0 102520
09:00−21ююв1290100 0.0 1024148
12:00−16ю1290100 0.1 1022296
15:00−11всв0191100 0.2 1021360
18:00−13ююз0194100 0.3 102120
21:00−16ю229499 0.3 102320